Theta_e
315 315 316 316 316 317 316 315 315 314 315 314 316 318 318 317 316 316 324 324 318 315 317 319 318 316 317 316 312 317 315 316 314 311 310 310 309 312 310 312 311 310 309 308 309 306 303 321 319 313 323 326 325 326
315 315 315 315 315 316 316 315 315 314 314 314 315 317 318 317 316 314 322 325 323 317 318 322 321 322 320 320 317 317 315 318 318 315 317 314 312 312 311 306 317 308 312 310 313 312 321 321 321 325 325 323 323 322
314 314 314 314 315 316 315 314 314 314 314 314 315 317 318 317 315 314 320 322 321 318 318 319 318 322 324 322 324 315 319 319 318 321 316 315 310 314 308 310 312 315 318 312 312 314 315 317 319 320 321 322 323 322
313 313 313 314 314 314 313 312 313 313 314 315 315 317 317 317 315 313 320 322 320 318 312 317 322 320 324 323 321 322 320 321 319 319 314 312 310 317 311 312 311 314 315 313 313 315 316 317 318 319 320 321 321 321
312 312 312 313 312 311 311 311 312 313 314 315 316 317 317 317 315 316 322 326 324 316 310 312 317 320 320 319 318 319 319 318 317 315 313 311 315 314 314 313 310 316 313 309 309 316 316 317 320 321 319 319 320 320
311 311 313 312 310 310 310 310 311 312 314 315 316 316 316 316 314 320 317 323 327 321 312 308 319 317 317 318 319 319 318 318 317 315 314 316 318 316 308 307 315 317 316 318 315 319 319 320 320 320 319 321 322 322
311 312 311 310 310 309 309 310 311 311 313 314 315 315 315 314 317 317 314 317 313 320 313 308 311 316 317 318 318 317 320 319 317 315 314 315 315 315 311 307 315 316 318 319 320 319 318 319 316 321 322 322 322 323
311 310 309 309 309 309 309 310 311 312 313 314 315 314 314 313 312 315 320 311 312 315 314 307 309 312 318 315 314 319 315 316 317 315 316 313 315 314 307 314 315 318 317 318 318 319 318 321 322 322 323 322 321 320
310 309 309 308 308 308 309 310 311 312 313 314 314 314 316 313 317 316 314 313 319 316 309 310 306 307 317 314 319 317 318 309 316 312 312 312 310 307 313 317 314 317 315 316 318 318 319 318 320 321 321 320 319 320
309 309 308 308 308 308 308 309 310 312 314 314 314 314 312 317 313 314 317 312 311 312 312 307 313 307 313 316 312 312 315 309 308 310 315 309 310 317 319 320 322 321 322 319 316 315 318 319 320 320 320 321 321 320
308 308 308 308 308 308 309 309 310 312 310 314 311 311 319 314 318 315 307 305 307 304 309 310 311 308 314 307 309 313 311 310 302 308 307 305 305 314 320 320 321 321 323 323 322 322 322 321 320 320 320 320 320 321
307 307 307 308 308 308 308 309 310 311 314 309 311 314 320 315 310 305 303 306 303 303 311 309 309 312 314 318 310 311 306 308 302 314 305 303 314 321 320 319 320 322 323 322 323 322 322 322 322 321 320 320 321 322
306 306 307 307 307 307 309 309 310 311 309 315 313 308 309 308 296 299 298 301 303 308 311 311 310 312 315 314 309 309 304 302 312 304 301 310 319 321 322 322 322 324 323 322 322 322 323 322 322 321 320 321 323 322
306 306 306 307 307 307 308 310 310 310 310 307 305 294 303 300 303 305 306 305 309 312 310 310 315 313 318 311 311 304 307 309 300 298 301 316 319 321 323 322 321 320 321 321 321 322 320 320 320 321 322 323 322 321
306 306 306 306 307 307 308 310 310 312 307 305 301 297 302 307 307 310 311 312 314 314 313 311 312 312 311 307 310 308 303 300 301 303 313 319 320 321 321 321 320 321 321 321 321 319 321 320 320 321 323 323 323 322
306 305 305 307 308 308 309 309 310 310 305 301 302 303 308 306 305 307 309 309 311 312 314 312 309 306 305 306 304 303 301 301 308 315 315 319 320 321 322 322 322 323 322 322 321 321 321 319 320 321 321 320 318 317
305 304 308 308 308 309 309 308 307 303 301 299 298 308 308 307 306 306 308 308 313 311 305 309 303 303 308 306 302 308 306 312 316 314 317 322 321 322 323 323 324 324 323 322 323 323 322 321 322 320 316 316 316 316
305 308 309 308 308 308 306 306 303 301 297 300 300 307 309 308 308 308 309 311 312 309 312 307 312 304 302 299 302 311 316 315 316 316 317 320 323 325 324 324 325 324 323 323 322 320 321 319 315 316 316 314 313 318
307 309 308 308 309 307 301 302 303 296 300 304 307 307 308 307 311 312 311 312 313 313 312 308 305 304 304 307 308 310 313 313 313 314 317 319 321 321 323 325 325 325 323 323 320 317 314 315 314 315 313 312 311 314
307 307 307 308 309 303 299 300 306 301 298 303 306 306 306 306 309 309 309 310 310 308 304 303 305 308 308 311 313 314 314 317 316 312 311 314 317 320 322 325 323 324 321 319 314 309 313 311 312 313 312 310 310 311
306 308 308 308 306 303 303 300 299 304 305 302 307 305 305 308 306 306 307 310 307 304 303 308 309 312 316 317 316 315 316 317 315 313 312 312 316 317 326 324 322 319 319 315 315 312 310 309 311 312 313 311 309 310
307 309 307 307 301 302 301 305 302 306 305 304 304 306 304 303 304 306 310 306 306 308 309 310 312 313 313 316 315 318 318 318 318 315 308 311 314 323 321 320 318 318 316 317 315 310 311 314 313 313 311 310 308 306
308 307 305 304 299 299 300 311 302 304 299 299 304 301 302 304 306 310 304 307 309 313 314 313 316 317 315 317 318 318 319 317 314 315 315 316 327 325 324 317 317 314 313 315 317 315 318 309 313 311 310 309 307 305
307 302 299 301 299 295 303 298 301 302 301 300 301 300 302 307 314 308 303 307 311 317 320 319 318 320 323 321 318 316 316 316 314 315 320 323 322 319 318 317 317 317 316 316 316 315 314 316 309 314 312 309 305 303
295 296 299 292 301 296 295 296 296 296 296 300 299 300 305 309 302 301 302 310 317 318 319 318 322 322 319 316 315 318 320 316 315 318 325 324 319 317 316 317 317 317 318 316 314 314 313 312 311 311 312 311 310 309
290 297 293 295 296 295 296 294 295 296 298 298 300 305 305 302 298 299 305 308 313 317 316 317 318 319 316 320 318 320 320 323 324 322 318 318 317 315 313 312 312 314 318 317 314 313 313 311 310 310 309 307 300 308
291 295 300 305 303 302 300 303 304 302 297 296 298 301 300 295 296 302 310 313 311 318 321 324 321 322 321 318 319 321 324 320 318 316 317 318 318 318 317 314 314 316 319 318 316 315 314 313 312 311 310 311 311 310
298 301 297 301 301 305 298 298 299 298 300 304 303 298 294 294 299 308 312 320 319 322 322 322 320 317 315 315 317 319 319 316 318 319 319 319 320 319 319 319 320 305 318 317 317 317 315 315 314 313 312 312 312 313
298 306 305 299 299 300 300 302 303 306 307 303 299 299 303 309 315 316 318 319 318 314 312 313 316 317 317 317 319 319 318 317 314 312 312 312 313 315 318 319 320 319 318 317 298 307 315 315 315 315 314 314 314 314
301 305 301 302 301 301 304 306 305 309 311 309 312 316 316 319 320 322 321 318 319 315 317 317 317 316 315 315 314 315 317 318 317 315 312 312 314 317 318 319 318 318 318 317 316 315 301 311 309 316 314 315 314 313
309 306 303 303 302 307 310 314 313 314 315 316 319 313 312 314 318 321 320 320 317 319 316 316 314 316 315 315 315 314 313 318 318 319 317 317 319 319 318 319 318 319 319 317 317 316 315 313 314 313 314 313 313 311
308 305 305 303 308 316 317 316 316 316 316 316 316 315 318 312 312 317 323 322 319 313 312 315 318 316 317 318 319 319 305 319 319 319 320 320 319 321 319 319 320 320 319 318 319 319 317 315 314 314 313 312 312 312
305 306 307 307 309 309 315 313 312 311 314 313 311 313 313 311 310 320 327 326 324 321 320 318 319 322 325 324 322 321 316 321 311 299 300 298 296 306 318 317 321 320 320 317 318 317 317 316 316 315 316 314 313 313
Wind_Speed
9 10 10 8 9 9 7 7 8 8 11 12 13 15 13 15 16 11 3 7 7 6 8 2 1 5 5 6 7 8 7 9 7 7 9 9 6 6 5 10 8 8 9 10 11 11 14 8 6 5 6 3 6 5
9 9 10 8 9 8 6 7 9 7 9 10 11 13 12 12 14 13 4 5 5 6 8 8 10 11 10 10 8 5 7 6 6 6 2 6 4 7 7 11 6 8 8 9 9 7 5 3 5 5 7 6 2 5
10 10 9 9 9 7 5 7 8 8 8 9 10 11 10 9 11 10 7 5 7 7 9 8 5 4 3 8 8 9 4 5 5 5 7 5 5 8 9 8 8 7 7 7 12 7 4 6 6 8 8 10 10 10
9 8 9 9 9 5 5 7 8 8 8 8 9 10 10 8 9 10 7 5 6 6 6 6 6 7 2 7 8 10 11 6 8 6 8 7 8 2 8 8 8 9 2 8 10 12 14 11 5 6 12 11 11 12
8 9 9 7 5 5 6 6 7 7 8 8 8 8 9 9 10 10 7 2 3 7 7 9 11 5 5 5 6 8 11 9 7 7 6 7 7 5 7 10 9 8 8 9 8 13 11 11 11 10 15 9 13 14
9 9 8 6 6 6 6 6 8 7 7 7 8 8 8 8 9 8 6 4 2 5 6 6 6 7 4 6 8 9 9 9 9 6 6 6 7 2 7 9 9 7 4 7 9 10 13 13 13 12 13 13 10 14
9 8 7 7 7 6 6 7 8 7 8 7 7 7 8 7 8 5 8 6 7 7 5 6 4 8 4 5 5 6 9 6 7 8 9 9 7 5 10 12 12 10 9 8 7 6 9 5 6 9 11 13 14 16
9 8 8 8 7 6 7 8 8 7 8 7 7 7 7 8 11 8 2 6 6 6 4 5 4 3 7 7 7 4 5 6 6 8 9 7 3 4 7 11 8 5 4 6 4 7 8 10 10 13 13 15 17 17
9 9 9 8 7 7 7 7 7 6 7 6 6 7 5 5 5 6 6 5 5 6 6 5 8 2 3 7 3 5 5 6 5 7 10 6 9 7 10 6 6 4 6 10 8 11 11 11 13 15 16 17 18 17
9 9 9 8 7 7 7 7 6 5 5 5 5 6 5 5 11 5 4 4 4 2 5 6 7 6 3 2 5 6 3 4 3 5 1 6 12 13 9 1 6 7 8 5 9 9 12 14 15 17 18 17 16 16
9 9 9 8 8 7 7 6 5 3 3 4 4 1 5 4 5 4 4 4 4 5 5 6 9 8 5 7 5 1 3 3 4 5 4 5 6 5 7 4 4 4 4 7 10 11 13 16 17 18 17 16 16 17
8 8 8 8 8 7 7 5 3 3 3 2 5 4 3 5 3 5 4 4 5 5 4 5 4 7 3 2 5 2 5 2 4 2 4 5 6 6 6 3 4 5 7 10 12 14 16 18 19 15 14 13 16 14
7 7 7 7 7 7 6 6 6 5 5 5 4 3 4 3 2 7 9 6 5 4 5 6 7 3 3 5 2 3 6 5 1 5 4 1 6 4 3 4 6 7 10 12 14 15 18 16 14 12 13 15 19 17
7 7 7 7 7 6 5 6 4 3 2 3 5 3 6 6 7 8 8 3 4 2 4 3 3 2 0 4 3 5 4 4 5 4 7 6 4 3 1 5 8 12 14 15 15 16 13 12 12 14 14 16 14 16
6 6 6 8 8 7 5 5 7 3 2 3 3 5 8 7 4 3 2 2 2 4 5 5 4 5 3 5 5 3 4 5 5 3 4 5 4 3 4 7 10 11 12 13 14 13 13 14 14 16 17 16 16 15
5 5 8 9 10 9 7 5 3 1 1 2 5 8 7 7 7 8 6 6 5 6 4 5 3 5 7 4 5 7 5 6 2 3 4 6 4 5 6 8 10 10 11 13 10 11 12 14 15 16 17 15 14 14
6 3 7 13 9 10 9 3 3 4 4 5 5 10 10 8 5 4 3 1 4 6 8 0 6 8 4 3 6 5 3 4 2 4 4 5 4 6 7 10 10 11 11 11 12 12 14 12 14 15 13 14 15 14
3 6 9 12 10 7 2 2 3 4 5 4 6 9 10 8 6 6 3 3 4 6 3 4 4 6 5 6 4 0 3 3 2 3 4 4 4 6 7 10 10 12 10 11 11 10 11 14 12 9 11 12 12 11
5 5 4 11 8 2 4 4 2 2 6 5 10 12 3 5 9 9 6 6 7 7 4 3 7 8 9 7 7 5 3 3 3 4 5 5 4 5 8 10 10 9 9 9 12 10 10 11 9 7 7 8 7 7
5 5 4 5 9 2 3 2 3 4 4 6 8 10 9 10 9 6 9 8 6 5 7 8 11 11 9 5 5 9 3 3 4 6 5 5 6 8 9 8 6 7 4 12 8 9 9 7 7 7 7 7 7 7
6 4 8 5 4 3 2 3 4 5 5 6 9 8 8 7 9 10 10 9 8 10 12 13 13 12 12 10 9 7 6 5 4 7 7 8 7 8 6 6 5 5 7 6 7 9 8 7 7 7 7 8 8 8
2 9 3 4 3 4 3 4 3 3 4 5 7 7 7 9 10 10 8 9 11 11 12 12 12 12 11 11 10 10 11 12 8 8 8 9 10 4 4 4 8 6 6 3 8 3 3 4 5 8 9 9 9 10
5 4 3 4 5 6 3 3 6 5 5 3 5 4 6 9 8 8 6 9 13 12 10 10 11 12 13 13 11 8 10 10 9 9 9 7 4 3 3 7 4 3 4 6 8 3 3 4 7 8 9 10 9 10
3 3 4 6 4 4 3 4 3 3 4 4 5 9 8 3 1 3 8 9 9 5 4 7 6 6 6 9 8 10 9 8 9 9 1 3 4 4 3 5 5 6 5 5 6 5 5 7 7 8 11 13 11 11
1 4 3 4 6 5 4 4 5 4 5 8 6 6 0 1 2 4 6 3 3 4 3 4 6 7 6 7 4 4 5 7 6 4 4 2 8 5 6 7 4 5 5 7 8 7 6 8 9 10 9 9 11 11
4 5 4 7 4 5 6 4 6 9 7 6 4 1 2 3 4 5 1 2 3 3 2 5 5 5 4 2 4 3 3 4 6 5 9 6 6 7 6 4 6 3 4 5 7 8 9 9 9 12 13 12 10 13
4 6 6 6 4 4 5 4 3 3 2 2 2 3 2 3 3 3 4 2 3 6 3 5 5 4 6 7 7 5 4 8 7 6 8 8 6 5 5 7 7 4 4 7 7 7 8 9 9 10 10 11 12 12
4 4 5 9 8 1 4 3 4 6 5 1 3 2 1 2 2 2 3 3 2 9 8 9 8 7 10 8 8 6 5 9 10 7 6 5 4 7 9 8 6 8 8 10 7 8 7 8 8 9 9 9 8 8
4 4 1 2 3 5 6 5 2 3 2 2 3 6 7 7 5 6 5 6 3 15 7 6 5 8 8 8 10 8 7 8 10 10 9 7 7 7 7 7 8 7 7 7 11 13 12 9 7 7 7 7 7 7
3 4 3 5 3 0 1 0 2 4 5 3 5 2 3 4 5 5 8 10 11 9 11 10 7 8 8 8 8 6 5 6 8 7 6 7 8 7 7 5 6 5 7 8 8 7 1 6 4 6 2 3 5 6
2 1 3 2 2 3 5 6 6 6 3 3 3 5 6 8 6 2 3 7 6 8 9 7 8 8 8 8 8 9 7 9 10 9 1 4 7 7 6 6 3 3 5 5 2 2 4 3 3 4 6 5 3 4
3 3 3 4 1 1 2 2 2 3 4 5 4 5 1 8 4 3 1 2 11 1 5 3 3 11 11 1 9 3 5 3 5 5 5 7 10 4 9 5 3 1 5 4 3 4 9 5 3 4 4 2 2 3
2 2 4 4 3 3 2 3 2 4 3 4 4 6 4 5 5 2 1 6 6 3 10 14 13 3 10 10 8 9 11 11 15 15 13 11 10 9 9 7 2 6 8 6 2 2 5 3 3 5 6 3 2 3
Wind_Direction
265 277 286 283 297 298 286 296 308 326 327 331 333 338 345 352 351 339 20 13 339 318 310 4 284 287 255 240 281 66 259 196 267 257 266 270 228 266 253 272 292 264 259 251 231 249 258 22 277 316 48 97 5 21
260 273 270 277 287 288 286 298 304 311 318 323 325 332 342 348 347 339 304 14 338 266 335 321 291 295 282 292 302 281 319 307 347 294 315 304 273 252 263 286 118 254 275 325 317 28 141 12 355 30 331 311 267 320
259 264 259 271 279 276 282 294 304 307 307 311 311 323 332 338 343 342 315 332 294 261 269 218 187 126 205 229 265 282 214 323 268 327 315 308 300 302 279 271 297 248 213 261 302 293 356 358 317 304 291 291 299 300
250 256 263 262 269 251 275 291 302 304 301 293 302 314 324 327 326 321 309 349 281 294 278 116 123 196 32 269 257 260 285 270 268 277 261 259 271 137 279 317 306 301 331 273 282 274 281 276 298 356 320 308 300 297
249 258 260 251 232 251 275 286 299 300 299 295 302 306 316 318 311 293 269 302 318 319 329 321 302 243 174 179 253 251 250 249 247 225 233 246 256 283 269 267 273 269 315 256 289 343 328 308 303 310 290 294 293 280
248 253 239 222 239 258 272 285 287 294 301 288 294 302 309 307 310 281 210 155 295 348 284 288 87 192 202 245 249 236 228 230 250 261 260 258 266 246 278 277 288 333 233 228 279 315 310 300 300 288 274 274 308 306
243 235 222 238 251 263 277 275 275 281 287 290 292 295 296 294 290 298 358 18 343 306 257 276 246 136 217 244 206 209 210 227 237 240 244 261 273 200 260 267 283 297 292 298 341 290 274 284 295 299 304 299 292 287
227 218 229 244 251 256 270 277 283 279 281 288 285 289 282 282 274 251 139 207 275 270 262 269 264 206 174 232 189 185 214 224 228 254 267 251 186 247 275 281 322 337 306 265 271 298 275 291 292 283 299 305 297 291
219 218 233 238 242 251 265 274 284 281 277 281 286 282 259 225 234 67 107 157 230 295 298 230 276 85 127 256 296 171 254 218 250 219 236 272 242 205 225 220 251 223 278 304 301 279 295 291 297 306 301 299 292 292
221 222 224 236 243 249 260 267 275 292 284 264 253 217 213 65 128 158 169 197 214 220 240 260 275 269 241 186 227 144 240 256 240 236 282 241 259 260 202 267 330 312 300 285 264 286 304 306 303 306 302 296 310 316
219 219 225 231 231 241 252 258 266 275 218 220 232 297 87 132 223 230 196 230 190 234 226 232 251 252 141 260 276 306 143 278 250 178 240 209 230 130 128 160 205 243 256 272 284 294 302 303 301 299 305 320 305 296
216 219 213 217 221 233 244 247 248 218 279 322 295 250 236 214 215 236 216 200 206 241 193 226 172 221 138 249 262 163 250 247 255 185 232 256 88 128 168 189 271 296 297 298 296 297 300 300 300 319 311 297 286 299
203 203 212 217 225 235 236 232 230 284 287 248 218 249 216 170 206 225 195 201 187 231 202 187 191 223 167 234 204 234 239 217 243 231 220 360 117 118 93 315 292 301 284 295 301 301 301 326 325 307 300 290 308 310
205 214 211 214 219 224 227 217 218 186 257 240 196 238 221 197 230 214 242 352 93 161 267 235 141 273 200 243 221 253 191 218 222 229 233 100 83 55 17 316 294 297 309 306 311 308 337 321 304 300 292 318 315 294
219 231 228 219 216 213 209 194 186 223 209 203 207 239 225 256 298 282 303 277 166 232 215 237 181 238 211 230 216 256 227 224 241 259 87 118 73 28 341 321 321 317 317 319 318 336 320 320 307 312 330 314 307 310
233 240 218 199 191 186 178 159 178 222 165 232 239 247 233 227 235 250 215 238 167 204 234 247 210 252 213 231 198 221 255 221 68 82 99 121 57 355 334 325 324 320 322 317 329 319 316 315 326 326 324 320 313 300
211 252 153 165 162 165 172 188 181 196 216 211 238 253 270 275 256 312 281 159 195 232 227 205 237 214 216 218 229 215 279 14 21 74 102 67 349 326 330 328 325 318 322 327 322 322 326 317 337 320 318 320 315 309
253 116 133 154 164 134 158 235 225 215 217 204 238 237 228 257 273 300 333 329 244 239 173 235 302 246 237 248 251 227 112 183 92 333 357 30 316 320 314 322 326 309 339 331 328 331 335 348 326 319 320 324 318 331
35 51 91 170 192 171 174 183 240 255 225 225 238 267 291 264 263 262 255 240 254 255 128 227 240 237 241 260 289 205 200 285 253 200 266 278 286 325 321 333 323 349 332 333 24 10 358 338 332 334 329 328 327 341
256 282 276 219 218 219 173 188 225 241 213 224 241 252 250 260 258 256 254 240 212 237 266 228 242 262 283 296 10 316 330 52 316 300 305 310 332 329 2 344 330 316 316 40 27 21 354 348 347 347 346 348 347 358
171 212 181 179 185 274 267 161 216 272 291 259 253 235 251 259 248 239 234 221 219 226 240 248 256 260 272 290 304 301 313 266 278 288 288 296 337 331 345 305 308 52 48 39 28 22 17 6 350 349 354 21 15 5
208 150 160 164 190 217 246 212 247 288 262 286 286 275 253 263 259 236 241 245 242 238 246 252 252 260 268 264 263 254 267 269 272 279 271 254 257 5 314 309 35 44 68 79 87 66 31 20 2 27 29 28 34 35
161 189 194 158 205 205 240 223 231 208 223 234 278 235 223 233 236 242 230 232 243 247 253 258 261 256 260 269 273 265 228 233 249 244 238 236 71 235 259 75 65 55 51 75 125 146 27 106 76 51 40 38 40 40
211 187 210 194 191 231 178 186 273 220 215 238 261 253 257 248 276 266 256 249 262 274 272 249 255 263 268 257 248 228 216 221 230 232 201 109 204 229 171 115 143 114 113 97 76 73 73 112 112 95 87 77 67 61
177 222 180 226 187 193 236 186 196 236 254 232 238 251 202 153 239 260 260 302 239 222 212 231 253 234 226 241 183 106 177 208 196 125 144 224 211 107 97 105 28 14 46 62 68 76 78 77 55 55 72 89 95 87
223 200 205 202 180 215 203 216 207 219 237 214 239 293 292 233 220 239 227 5 320 314 226 234 220 201 217 112 123 141 177 113 124 169 183 155 138 128 115 140 127 57 308 78 83 85 86 71 79 91 96 89 76 76
228 208 192 217 229 223 234 225 186 288 315 250 277 227 209 275 287 331 320 282 270 272 280 190 188 179 133 109 112 100 115 126 150 153 173 181 159 158 153 121 105 74 104 89 89 79 85 90 85 81 84 89 87 81
258 251 210 192 206 88 354 288 234 215 207 162 359 352 142 209 288 273 240 186 32 76 75 94 98 111 120 133 147 157 196 226 208 146 129 129 120 86 85 82 74 8 38 32 3 109 98 90 85 87 84 77 73 82
255 255 20 63 198 211 219 235 302 47 63 165 207 193 193 187 179 225 186 157 210 112 107 121 148 141 136 156 175 174 156 131 130 140 136 129 128 124 125 156 164 190 115 108 57 46 34 37 44 95 110 106 101 86
238 186 239 254 242 187 75 151 239 229 222 218 267 97 95 115 218 248 121 187 180 152 138 151 153 145 143 139 146 140 150 140 147 144 159 153 149 154 147 131 116 143 138 126 121 137 167 235 176 225 213 121 120 110
101 37 303 252 248 211 211 214 236 228 209 197 184 142 155 153 144 92 134 71 25 125 150 180 144 132 133 140 145 171 159 138 179 198 158 307 132 147 154 145 134 152 131 116 93 168 128 196 26 28 81 70 38 19
360 338 317 295 325 58 193 180 150 169 164 152 167 160 277 95 80 108 251 166 133 332 294 36 107 88 12 59 135 142 352 24 121 114 58 39 18 71 112 101 328 133 154 167 142 350 30 52 29 355 101 24 51 92
269 244 239 256 222 183 193 134 158 134 164 184 171 147 187 120 129 160 203 116 200 291 111 162 215 136 84 67 81 77 71 88 100 97 78 60 70 64 58 15 359 234 150 192 44 279 249 212 247 276 291 81 330 22